Location: USNO
(38.9242°N, 77.0663°W)
Time: 22:15:36
(UTC-04:00)

ISS - Pass Details

Date: 07 October 2017
Orbit: 400 x 408 km, 51.6° (Epoch: 24 October)

Event Time Altitude Azimuth Distance (km) Brightness Sun altitude
Rises 20:42:11 0° 317° (NW) 2,329 0.9 -24.2°
Reaches altitude 10° 20:44:50 10° 340° (NNW) 1,469 -0.6 -24.7°
Enters shadow 20:45:23 12° 348° (NNW) 1,336 -0.9 -24.8°
